sat.trackr.live / text

‹ back to catalog

STARLINK-37891

NORAD 69948 · 2026-157F

PAYLOAD ACTIVE UNKNOWN

§ Identity

Operator
Country
US
Launch date
2026-07-09
Launch site
AFETR
Launch vehicle
Mass (kg)
RCS (m²)

Purposes: comms

External: N2YO · Heavens-Above · Gunter

§ Orbital elements

Epoch: 2026-09-19T16:51:13.882464Z

Period
93.85 min
Inclination
53.1583°
Eccentricity
0.0001052
Mean motion
15.34402142 rev/d
Perigee alt
462.0 km
Apogee alt
463.4 km
Semi-major
6,840.8 km
B*
6.2833e-4
RAAN
337.2212°
Arg perigee
85.3327°
Mean anomaly
274.7795°
Rev number
1,125

§ Raw data

STARLINK-378911 69948U 26157F   26262.70224401  .00020914  00000+0  62833-3 0  99952 69948  53.1583 337.2212 0001052  85.3327 274.7795 15.34402142 11255

JSON: /api/v1/satellites/69948 · /tle

For live sub-satellite position, see the globe view (requires WebGL).

§ Visibility from observer

Set your observer location to see the next 7 days of passes ≥ 10°. The values pass through the URL so the page stays shareable.

No JS? Fill the form by hand. The geolocation button needs JavaScript.